This demonstration page uses our WeatherBlox Daily Observations layout. Learn more.

Hourly Observations for May 5, 2019

Temp ( °F °C ) Dew Point ( °F °C ) Humidity (%) Winds ( mph kmh ) Pressure ( in mb ) Visibility ( mi km ) Precip ( " mm )
12:54 am 00:54 Clear 57 13.9 51 10.6 81 81 S 10 17 29.83 1010 10 16.0934 0 0
1:54 am 01:54 Mostly Clear 57 13.9 51 10.6 81 81 S 10 17 29.83 1010 10 16.0934 0 0
2:54 am 02:54 Clear 54 12.2 50 10 87 87 S 7 11 29.84 1010 10 16.0934 0 0
3:54 am 03:54 Clear 55 12.8 50 10 83 83 SE 5 7 29.82 1010 10 16.0934 0 0
4:54 am 04:54 Clear 54 12.2 50 10 87 87 SSE 6 9 29.82 1010 10 16.0934 0 0
5:54 am 05:54 Clear 52 11.1 49 9.4 89 89 Calm 29.82 1010 10 16.0934 0 0
6:54 am 06:54 Sunny 52 11.1 49 9.4 89 89 SSE 5 7 29.84 1011 10 16.0934 0 0
7:54 am 07:54 Sunny 56 13.3 51 10.6 84 84 SSE 3 6 29.85 1011 10 16.0934 0 0
8:54 am 08:54 Sunny 62 16.7 53 11.7 73 73 SSW 9 15 29.84 1011 10 16.0934 0 0
9:54 am 09:54 Sunny 68 20 53 11.7 59 59 SSW 12 19 29.82 1010 10 16.0934 0 0
10:54 am 10:54 Sunny 71 21.7 54 12.2 55 55 SSW 10 17 29.8 1009 10 16.0934 0 0
11:54 am 11:54 Sunny 74 23.3 56 13.3 54 54 SSW 13 20 29.79 1009 10 16.0934 0 0
12:54 pm 12:54 Sunny 76 24.4 55 12.8 48 48 S 10 17 29.77 1008 10 16.0934 0 0
1:54 pm 13:54 Sunny 78 25.6 53 11.7 42 42 SSE 12 19 29.75 1008 10 16.0934 0 0
2:54 pm 14:54 Mostly Sunny 80 26.7 52 11.1 38 38 SSW 9 15 29.73 1007 10 16.0934 0 0
3:54 pm 15:54 Partly Cloudy 79 26.1 52 11.1 39 39 S 14 22 29.69 1005 10 16.0934 0 0
4:27 pm 16:27 Partly Cloudy with Thunderstorms 76 24.4 53 11.7 45 45 S 10 17 29.65 1004 10 16.0934 0 0
4:54 pm 16:54 Mostly Cloudy with Nearby Thunderstorms 76 24.4 52 11.1 43 43 SSE 21 33 29.64 1004 10 16.0934 0 0
5:06 pm 17:06 Mostly Cloudy with Thunderstorms 77 25 51 10.6 40 40 SE 22 35 29.61 1003 10 16.0934 0 0
5:41 pm 17:41 Very Windy with Storms Likely 61 16.1 53 11.7 75 75 WNW 38 61 29.57 1001 2.5 4.02335 0 0.0254
5:46 pm 17:46 Very Windy with Storms Likely 58 14.4 52 11.1 81 81 NNW 52 83 29.63 1003 1.25 2.011675 0 0.0254
5:54 pm 17:54 Cloudy with Heavy Thunderstorms 52 11.1 49 9.4 89 89 N 20 31 29.77 1008 0.75 1.207005 0.12 3.048
5:57 pm 17:57 Cloudy with Heavy Thunderstorms 52 11.1 48 8.9 86 86 N 16 26 29.8 1009 1 1.60934 0.16 4.064
6:03 pm 18:03 Cloudy with Heavy Thunderstorms 52 11.1 49 9.4 89 89 ENE 16 26 29.8 1009 2.5 4.02335 0.25 6.35
6:10 pm 18:10 Cloudy with Heavy Thunderstorms 55 12.8 49 9.4 80 80 ENE 9 15 29.78 1008 4 6.43736 0.31 7.874
6:41 pm 18:41 Cloudy with Nearby Thunderstorms 58 14.4 50 10 75 75 SSE 15 24 29.74 1007 10 16.0934 0.36 9.144
6:50 pm 18:50 Windy with Storms Likely 57 14 52 11 82 82 SSE 20 31 29.74 1007 10 16.0934 0.37 9.398
6:54 pm 18:54 Cloudy with Light Thunderstorms 58 14.4 51 10.6 78 78 SSE 18 30 29.75 1007 10 16.0934 0.37 9.398
7:18 pm 19:18 Cloudy with Nearby Thunderstorms 57 13.9 52 11.1 83 83 SE 16 26 29.72 1007 10 16.0934 0 0.0254
7:30 pm 19:30 Mostly Sunny 58 14.4 52 11.1 81 81 undefined N/A 29.7 1006 N/A 0 0.0254
7:54 pm 19:54 Mostly Cloudy 57 13.9 52 11.1 83 83 undefined N/A 29.72 1007 10 16.0934 0 0.0254
8:17 pm 20:17 Partly Cloudy with Thunderstorms N/A N/A N/A undefined N/A N/A N/A 0 0
8:32 pm 20:32 Mostly Clear with Nearby Thunderstorms N/A N/A N/A undefined N/A N/A N/A 0 0
8:44 pm 20:44 Mostly Clear with Thunderstorms N/A N/A N/A undefined N/A N/A N/A 0 0
8:54 pm 20:54 Mostly Clear with Thunderstorms N/A N/A N/A undefined N/A N/A N/A 0 0
9:39 pm 21:39 Mostly Clear with Light Rain 56 13.3 53 11.7 90 90 N 8 13 29.78 1008 9 14.48406 0.03 0.762
9:54 pm 21:54 Mostly Cloudy 57 13.9 53 11.7 87 87 E 9 15 29.77 1008 10 16.0934 0.03 0.762
10:54 pm 22:54 Clear 55 12.8 51 10.6 87 87 N 3 6 29.79 1009 10 16.0934 0 0
11:54 pm 23:54 Clear 55 12.8 52 11.1 90 90 Calm 29.8 1009 10 16.0934 0 0

Powered by AerisWeather